Вернуться в каталог

STARLINK-35409

АктивенСвязьVLEO
NORAD 66196·PAYLOAD·🇺🇸 United States

Запущен Oct 26, 2025 с Cape Canaveral Space Force Station

Loading…

Ближайшие Пролёты (ближайшие 24 часа)

TLE

СвежийSource: CelesTrak SupGP

Эпоха: Sep 14, 2026, 23:15 UTC

1 66196C 25243V   26257.96923611  .00031352  00000+0  92654-3 0  2572
2 66196  53.1595  85.3160 0001291  88.1294 285.2080 15.34366972    18

Отслеживайте STARLINK-35409 в реальном времени с AllMySat

Download on the App Store